Location: Baumgarten
(49.0970°N, 12.7493°E)
Time: 18:13:11
(UTC+00:00)

Resurs 01 Rocket - Pass Details

Date: 05 July 2020
Orbit: 635 x 644 km, 98.0° (Epoch: 13 August)

Event Time Altitude Azimuth Distance (km) Brightness Sun altitude
Rises 20:46:32 0° 206° (SSW) 2,929 4.7 -11.1°
Reaches altitude 10° 20:49:21 10° 226° (SW) 2,025 4.1 -11.3°
Maximum altitude 20:52:23 18° 269° (W) 1,562 4.0 -11.6°
Drops below altitude 10° 20:55:26 10° 313° (NW) 2,034 5.6 -11.9°
Sets 20:58:17 0° 333° (NNW) 2,947 7.2 -12.1°
